Location: Castle Hill Houses
(40.8186°N, 73.8497°W)
Time: 16:26:25
(UTC+00:00)

STARLINK-1043 - Pass Details

Date: 26 January 2020
Orbit: 549 x 550 km, 53.0° (Epoch: 21 February)

Event Time Altitude Azimuth Distance (km) Brightness Sun altitude
Exits shadow 11:40:24 - 250° (WSW) 2,626 6.6 -6.3°
Reaches altitude 10° 11:42:31 10° 256° (WSW) 1,817 5.8 -5.9°
Maximum altitude 11:46:27 42° 329° (NNW) 785 4.1 -5.2°
Drops below altitude 10° 11:50:25 10° 41° (NE) 1,825 6.6 -4.5°
Sets 11:52:44 0° 49° (NE) 2,721 7.6 -4.1°
